[[{"header":{"parameterUnit":"m.s-1","parameterCategory":1,"la1":30.2991,"la2":30.254,"lo1":-89.0895,"lo2":-89.0444,"dx":0.0017,"dy":0.0017,"nx":28,"ny":28,"refTime":"2023-01-27T15:00:00:Z","depth":0,"parameterNumber":2,"parameterNumberName":"U-component_of_WINDS"},"data":[0,0,0,0,0,0,0,0,0,0,0,0,0,0,0,0,0,0,0,0,0,0,0,0,0,0,0,0,0,0,0,0,0,0,0,0,0,0,0,0,0,0,0,0,0,0,0,0,0,0,0,0,0,0,0,0,0,0,-1.492,-1.4921,0,-1.4996,-1.4997,-1.4998,-1.4962,-1.496,-1.4958,-1.4956,-1.5034,-1.5038,-1.5042,0,0,0,0,0,0,0,0,0,0,0,0,0,-1.4743,-1.4747,-1.492,-1.4921,-1.4922,-1.4996,-1.4997,-1.4998,-1.4962,-1.496,-1.4957,-1.4955,-1.5033,-1.5037,-1.5042,0,0,0,0,0,0,0,0,0,0,0,0,0,-1.482,-1.4748,-1.492,-1.4913,-1.4913,-1.4996,-1.4997,-1.4998,-1.4962,-1.496,-1.4957,-1.4954,-1.5031,-1.5037,-1.5043,-1.5137,0,0,-1.506,-1.5063,0,0,0,0,0,0,0,0,-1.4815,-1.4826,-1.4913,-1.4914,-1.4914,-1.4966,-1.4963,-1.5045,-1.4963,-1.4944,-1.4956,-1.4953,-1.5014,-1.5021,-1.5042,-1.514,-1.5144,-1.5061,-1.5064,-1.5067,-1.5069,0,0,0,0,0,0,0,-1.481,-1.4823,-1.495,-1.4914,-1.4915,-1.4906,-1.4913,-1.4978,-1.4994,-1.4945,-1.4943,-1.4952,-1.5013,-1.5036,-1.5043,-1.5145,-1.5061,-1.5066,-1.5069,-1.5072,-1.5324,-1.5327,0,0,0,0,0,0,-1.4805,-1.4819,-1.4948,-1.4952,-1.4856,-1.4911,-1.492,-1.4952,-1.4993,-1.4997,-1.4955,-1.495,-1.5027,-1.5036,-1.5046,-1.5158,-1.5067,-1.5072,-1.5076,-1.532,-1.5324,-1.5328,0,0,0,0,0,0,-1.4802,-1.4817,-1.4945,-1.4885,-1.49,-1.4917,-1.4954,-1.4956,-1.4978,-1.5,-1.5003,-1.4975,-1.5026,-1.5038,-1.5114,-1.516,-1.5075,-1.508,-1.5317,-1.5322,-1.5326,-1.5384,0,0,0,0,0,0,-1.4797,-1.4816,-1.4852,-1.4886,-1.4904,-1.5012,-1.4957,-1.4959,-1.4988,-1.4983,-1.502,-1.5023,-1.5024,-1.5106,-1.512,-1.5167,-1.5085,-1.5313,-1.5319,-1.5325,-1.5378,-1.5391,-1.5401,0,0,0,0,0,-1.479,-1.4866,-1.4854,-1.487,-1.4949,-1.5015,-1.5025,-1.5025,-1.4992,-1.5028,-1.5043,-1.5022,-1.5153,-1.5114,-1.513,-1.5179,-1.531,-1.5317,-1.5324,-1.5373,-1.5388,-1.5401,0,0,0,0,0,0,-1.4837,-1.487,-1.4858,-1.4946,-1.4978,-1.5009,-1.5055,-1.504,-1.5082,-1.5076,-1.5073,-1.5082,-1.5161,-1.5177,-1.5133,-1.5272,-1.5226,-1.5237,-1.5258,-1.5273,-1.5284,-1.5278,-1.509,0,0,0,0,0,-1.4858,-1.4909,-1.4934,-1.501,-1.5027,-1.5038,-1.5067,-1.5063,-1.5096,-1.5109,-1.5129,-1.5162,-1.521,-1.5242,-1.5288,-1.538,-1.5388,-1.5422,-1.5433,-1.5442,-1.5452,-1.5501,-1.5517,-1.5351,-1.5351,-1.5351,0,0,-1.4901,-1.4925,-1.4958,-1.502,-1.5044,-1.5097,-1.505,-1.5107,-1.5146,-1.5118,-1.5192,-1.5207,-1.5243,-1.5328,-1.5367,-1.5344,-1.5499,-1.5452,-1.5459,-1.5463,-1.551,-1.5526,-1.554,-1.5356,-1.5355,-1.5355,0,0,-1.5007,-1.503,-1.5096,-1.5121,-1.5158,-1.5165,-1.518,-1.5213,-1.5222,-1.5296,-1.5276,-1.5322,-1.5405,-1.5432,-1.5456,-1.557,-1.5553,-1.5585,-1.5644,-1.5693,-1.5706,-1.5717,-1.5758,-1.5772,-1.5594,-1.5594,-1.5594,0,-1.5056,-1.5134,-1.5131,-1.519,-1.5218,-1.5195,-1.5261,-1.5285,-1.5335,-1.5355,-1.5329,-1.5433,-1.5456,-1.5546,-1.5574,-1.5594,-1.5612,-1.5581,-1.5704,-1.5716,-1.5726,-1.5765,-1.578,-1.5598,-1.5598,-1.5597,-1.5597,0,-1.5193,-1.5247,-1.5295,-1.5344,-1.5377,-1.544,-1.5446,-1.5479,-1.5473,-1.5482,-1.5557,-1.5583,-1.5633,-1.5654,-1.5649,-1.5744,-1.5729,-1.5704,-1.5658,-1.5746,-1.5782,-1.5797,-1.5603,-1.5602,-1.5601,-1.56,0,0,-1.5331,-1.5377,-1.5394,-1.5416,-1.5455,-1.5497,-1.5557,-1.5606,-1.5635,-1.567,-1.5721,-1.5791,-1.5768,-1.5796,-1.5792,-1.5835,-1.5923,-1.5804,-1.5805,-1.5825,-1.6029,-1.6048,-1.6065,-1.5911,-1.5914,-1.5916,-1.6026,0,-1.544,-1.5546,-1.5545,-1.5643,-1.5693,-1.5671,-1.5724,-1.5753,-1.5763,-1.5807,-1.5818,-1.5868,-1.5833,-1.5849,-1.589,-1.5904,-1.5964,-1.5896,-1.5959,-1.5961,-1.5951,-1.6084,-1.6105,-1.6207,-1.604,-1.6043,-1.6044,0,-1.5581,-1.562,-1.5724,-1.5754,-1.5775,-1.5823,-1.5867,-1.5909,-1.5941,-1.5945,-1.5976,-1.5966,-1.6027,-1.5979,-1.6063,-1.6016,-1.6042,-1.6052,-1.6056,-1.6062,-1.6008,-1.6095,-1.624,-1.6255,-1.6067,-1.6065,-1.6063,0,-1.5671,-1.575,-1.5822,-1.5841,-1.5879,-1.5913,-1.593,-1.5959,-1.5988,-1.6027,-1.6046,-1.6091,-1.6116,-1.6151,-1.6153,-1.6118,-1.6237,-1.619,-1.6243,-1.6243,-1.6269,-1.6268,-1.6421,-1.6285,-1.6285,-1.6285,-1.6284,0,-1.5793,-1.5857,-1.5863,-1.5908,-1.5979,-1.5976,-1.6046,-1.606,-1.6086,-1.6133,-1.6116,-1.616,-1.616,-1.6204,-1.6206,-1.6275,-1.6286,-1.6291,-1.6291,-1.6293,-1.6293,-1.631,-1.6303,-1.6289,-1.6288,-1.6287,-1.6286,0,-1.5907,-1.5914,-1.5991,-1.6019,-1.6028,-1.6079,-1.6104,-1.6146,-1.6153,-1.6212,-1.6226,-1.6239,-1.629,-1.6295,-1.6355,-1.6356,-1.6439,-1.6431,-1.6429,-1.6428,-1.648,-1.6475,-1.6651,-1.6673,-1.6522,-1.6524,-1.6525,0,-1.5985,-1.6033,-1.6067,-1.6097,-1.6116,-1.6164,-1.6194,-1.6192,-1.6224,-1.6263,-1.63,-1.635,-1.639,-1.6473,-1.6487,-1.6532,-1.6526,-1.6584,-1.6532,-1.6532,-1.6526,-1.6524,-1.6528,-1.6594,-1.6596,-1.6597,-1.6598,0,-1.6121,-1.6122,-1.6165,-1.621,-1.6245,-1.628,-1.6313,-1.6338,-1.634,-1.6376,-1.6428,-1.6459,-1.652,-1.6569,-1.6613,-1.663,-1.6615,-1.6614,-1.6629,-1.6632,-1.6628,-1.663,-1.6456,-1.661,-1.6609,-1.6608,-1.6608,-1.6607,-1.6219,-1.6262,-1.6292,-1.634,-1.6364,-1.6395,-1.6436,-1.6448,-1.6492,-1.6541,-1.6537,-1.6595,-1.6625,-1.6683,-1.6703,-1.6748,-1.6728,-1.6749,-1.6755,-1.676,-1.6765,-1.662,-1.6756,-1.6755,-1.6755,-1.6755,-1.6754,0,-1.6355,-1.6373,-1.6418,-1.6464,-1.6502,-1.6483,-1.6518,-1.6551,-1.6602,-1.6631,-1.667,-1.673,-1.6777,-1.6795,-1.6841,-1.6873,-1.6867,-1.6885,-1.6883,-1.6887,-1.678,-1.6763,-1.6889,-1.6889,-1.6889,-1.6889,-1.6889,-1.6889,-1.6431,-1.6501,-1.6505,-1.6586,-1.6604,-1.666,-1.6681,-1.6709,-1.6732,-1.68,-1.6839,-1.685,-1.6874,-1.6922,-1.6964,-1.6968,-1.6986,-1.7007,-1.7008,-1.6908,-1.6895,-1.6882,-1.6865,-1.7011,-1.7011,-1.7111,-1.7112,-1.7113]},{"header":{"parameterUnit":"m.s-1","parameterCategory":1,"la1":30.2991,"la2":30.254,"lo1":-89.0895,"lo2":-89.0444,"dx":0.0017,"dy":0.0017,"nx":28,"ny":28,"refTime":"2023-01-27T15:00:00:Z","depth":0,"parameterNumber":3,"parameterNumberName":"V-component_of_WINDS"},"data":[0,0,0,0,0,0,0,0,0,0,0,0,0,0,0,0,0,0,0,0,0,0,0,0,0,0,0,0,0,0,0,0,0,0,0,0,0,0,0,0,0,0,0,0,0,0,0,0,0,0,0,0,0,0,0,0,0,0,-4.13,-4.1301,0,-4.1432,-4.1433,-4.1435,-4.1403,-4.1401,-4.1398,-4.1396,-4.1528,-4.1533,-4.1539,0,0,0,0,0,0,0,0,0,0,0,0,0,-4.1017,-4.1022,-4.13,-4.1301,-4.1303,-4.1431,-4.1433,-4.1435,-4.1404,-4.1401,-4.1398,-4.1395,-4.1526,-4.1533,-4.154,0,0,0,0,0,0,0,0,0,0,0,0,0,-4.1143,-4.1024,-4.1299,-4.1303,-4.1305,-4.1431,-4.1433,-4.1436,-4.1405,-4.1401,-4.1397,-4.1393,-4.1523,-4.1532,-4.1541,-4.1671,0,0,-4.1567,-4.1571,0,0,0,0,0,0,0,0,-4.1136,-4.1154,-4.1301,-4.1303,-4.1305,-4.1397,-4.1382,-4.1514,-4.1406,-4.1367,-4.1396,-4.1392,-4.1487,-4.1499,-4.1532,-4.1677,-4.1682,-4.1568,-4.1574,-4.1577,-4.158,0,0,0,0,0,0,0,-4.1127,-4.1148,-4.1352,-4.1303,-4.1306,-4.1297,-4.131,-4.1407,-4.1446,-4.137,-4.1368,-4.1384,-4.1487,-4.1523,-4.1534,-4.1684,-4.1568,-4.1576,-4.1581,-4.1585,-4.1941,-4.1945,0,0,0,0,0,0,-4.1117,-4.1141,-4.1348,-4.1356,-4.121,-4.1305,-4.132,-4.1371,-4.1445,-4.1453,-4.1387,-4.1382,-4.151,-4.1524,-4.1539,-4.1695,-4.1577,-4.1586,-4.1591,-4.1937,-4.1942,-4.1946,0,0,0,0,0,0,-4.1111,-4.1136,-4.1342,-4.1248,-4.1273,-4.1314,-4.1372,-4.1376,-4.1412,-4.1458,-4.1465,-4.1417,-4.1508,-4.1527,-4.1638,-4.1699,-4.1589,-4.1597,-4.1932,-4.1938,-4.1944,-4.2009,0,0,0,0,0,0,-4.1103,-4.1134,-4.1185,-4.1249,-4.1279,-4.1441,-4.1375,-4.1381,-4.1427,-4.1422,-4.1488,-4.1495,-4.1506,-4.1625,-4.1647,-4.1709,-4.1604,-4.1926,-4.1935,-4.1942,-4.2001,-4.2017,-4.203,0,0,0,0,0,-4.1093,-4.1198,-4.1188,-4.1213,-4.1343,-4.1444,-4.1461,-4.1473,-4.1433,-4.1483,-4.1513,-4.1493,-4.1689,-4.1637,-4.1661,-4.1727,-4.1923,-4.1932,-4.1941,-4.1995,-4.2014,-4.2029,0,0,0,0,0,0,-4.1139,-4.1206,-4.1196,-4.1324,-4.1379,-4.1439,-4.1503,-4.1492,-4.1558,-4.155,-4.1561,-4.1576,-4.1689,-4.1719,-4.166,-4.1856,-4.18,-4.1814,-4.1832,-4.185,-4.1864,-4.1854,-4.1612,0,0,0,0,0,-4.1164,-4.1242,-4.1296,-4.1404,-4.1432,-4.1463,-4.1507,-4.1512,-4.1568,-4.1591,-4.1629,-4.1683,-4.1757,-4.1805,-4.1876,-4.2005,-4.2018,-4.2063,-4.2077,-4.2088,-4.2101,-4.217,-4.219,-4.1977,-4.1977,-4.1977,0,0,-4.1216,-4.1263,-4.1311,-4.1414,-4.1457,-4.1536,-4.1483,-4.1568,-4.1627,-4.1603,-4.1711,-4.1741,-4.1802,-4.1923,-4.1978,-4.1951,-4.2162,-4.21,-4.2109,-4.2115,-4.2182,-4.2202,-4.222,-4.1984,-4.1982,-4.1981,0,0,-4.1352,-4.1396,-4.149,-4.1534,-4.1599,-4.1619,-4.1642,-4.1704,-4.1723,-4.1831,-4.1815,-4.1883,-4.2011,-4.2055,-4.2094,-4.2245,-4.2228,-4.2267,-4.2341,-4.2408,-4.2425,-4.244,-4.2493,-4.2512,-4.228,-4.228,-4.228,0,-4.1409,-4.1528,-4.1539,-4.1627,-4.1672,-4.1655,-4.175,-4.1792,-4.1876,-4.1907,-4.1876,-4.2035,-4.2075,-4.2205,-4.2242,-4.2275,-4.23,-4.226,-4.2422,-4.2437,-4.2451,-4.2502,-4.2522,-4.2284,-4.2284,-4.2283,-4.2283,0,-4.1594,-4.1677,-4.1745,-4.1828,-4.1881,-4.1972,-4.1995,-4.2047,-4.2046,-4.2069,-4.2178,-4.2226,-4.2305,-4.2336,-4.2336,-4.2466,-4.2448,-4.242,-4.2363,-4.2476,-4.2523,-4.2543,-4.229,-4.2289,-4.2287,-4.2286,0,0,-4.1763,-4.1851,-4.1876,-4.1913,-4.1983,-4.2047,-4.2136,-4.2214,-4.2258,-4.2317,-4.2391,-4.2498,-4.2472,-4.2516,-4.2521,-4.258,-4.2696,-4.2545,-4.2546,-4.2571,-4.2841,-4.2862,-4.2884,-4.2685,-4.2689,-4.2692,-4.2836,0,-4.1905,-4.2063,-4.2075,-4.2217,-4.2293,-4.2278,-4.2355,-4.2406,-4.2429,-4.2495,-4.252,-4.2596,-4.2556,-4.2583,-4.2641,-4.267,-4.275,-4.2659,-4.2753,-4.2756,-4.2738,-4.2909,-4.2932,-4.3065,-4.2855,-4.2858,-4.286,0,-4.2092,-4.2157,-4.2307,-4.2366,-4.2398,-4.2467,-4.254,-4.2604,-4.266,-4.2673,-4.2722,-4.2718,-4.2808,-4.2748,-4.2871,-4.2809,-4.2848,-4.2867,-4.2873,-4.2882,-4.2815,-4.2923,-4.3108,-4.3128,-4.289,-4.2887,-4.2885,0,-4.2199,-4.2324,-4.243,-4.2462,-4.2533,-4.2582,-4.2614,-4.2667,-4.2713,-4.2776,-4.2805,-4.2877,-4.2916,-4.2971,-4.2986,-4.2942,-4.3108,-4.305,-4.312,-4.312,-4.3156,-4.3154,-4.335,-4.3182,-4.3181,-4.3181,-4.3181,0,-4.2356,-4.2448,-4.2479,-4.2544,-4.2646,-4.2658,-4.2758,-4.2787,-4.2834,-4.2903,-4.2893,-4.2958,-4.2974,-4.3041,-4.3053,-4.3152,-4.317,-4.3182,-4.3184,-4.3183,-4.3181,-4.3208,-4.3199,-4.3186,-4.3185,-4.3184,-4.3183,0,-4.2494,-4.2518,-4.2632,-4.269,-4.2707,-4.278,-4.2829,-4.289,-4.2912,-4.2999,-4.302,-4.3054,-4.3132,-4.3152,-4.3246,-4.3254,-4.3371,-4.3364,-4.3352,-4.3352,-4.3421,-4.3414,-4.3641,-4.3671,-4.3483,-4.3485,-4.3486,0,-4.2592,-4.2663,-4.2729,-4.2775,-4.2809,-4.2883,-4.293,-4.2944,-4.2993,-4.3062,-4.3115,-4.3193,-4.3255,-4.3381,-4.3413,-4.3484,-4.3479,-4.3554,-4.349,-4.3486,-4.348,-4.3475,-4.3482,-4.3566,-4.3568,-4.357,-4.3571,0,-4.2765,-4.2773,-4.2842,-4.2915,-4.2971,-4.3029,-4.3084,-4.3122,-4.3143,-4.3198,-4.3279,-4.3328,-4.3423,-4.35,-4.3572,-4.3602,-4.359,-4.3591,-4.3611,-4.361,-4.36,-4.3606,-4.3385,-4.3586,-4.3584,-4.3583,-4.3582,-4.3582,-4.2886,-4.2947,-4.3003,-4.308,-4.3122,-4.3174,-4.3235,-4.3264,-4.3332,-4.3411,-4.3415,-4.3502,-4.3555,-4.365,-4.3685,-4.3753,-4.373,-4.3759,-4.3766,-4.3773,-4.3779,-4.359,-4.3766,-4.3765,-4.3765,-4.3765,-4.3764,0,-4.3057,-4.3092,-4.3162,-4.324,-4.33,-4.3283,-4.3343,-4.3394,-4.3471,-4.3522,-4.3584,-4.3676,-4.375,-4.3788,-4.3861,-4.3907,-4.3904,-4.3926,-4.3923,-4.393,-4.3795,-4.3771,-4.3928,-4.3928,-4.3928,-4.3928,-4.3928,-4.3928,-4.3153,-4.3257,-4.3271,-4.3395,-4.3429,-4.3515,-4.3551,-4.3597,-4.3638,-4.3742,-4.3804,-4.3827,-4.3873,-4.3949,-4.4015,-4.4024,-4.4051,-4.4077,-4.4083,-4.3956,-4.394,-4.3924,-4.3901,-4.4083,-4.4083,-4.4212,-4.4213,-4.4214]}]]